[[{"header":{"parameterUnit":"m.s-1","parameterCategory":1,"la1":30.2991,"la2":30.254,"lo1":-89.0895,"lo2":-89.0444,"dy":0.0017,"dx":0.0017,"nx":28,"ny":28,"refTime":"2023-08-29T09:00:00:Z","depth":0,"parameterNumber":2,"parameterNumberName":"U-component_of_WINDS"},"data":[0,0,0,0,0,0,0,0,0,0,0,0,0,0,0,0,0,0,0,0,0,0,0,0,0,0,0,0,0,0,0,0,0,0,0,0,0,0,0,0,0,0,0,0,0,0,0,0,0,0,0,0,0,0,0,0,0,0,-1.8357,-1.8358,0,-1.8365,-1.8366,-1.8366,-1.8291,-1.8289,-1.8287,-1.8285,-1.8294,-1.8296,-1.8298,0,0,0,0,0,0,0,0,0,0,0,0,0,-1.8278,-1.828,-1.8357,-1.8358,-1.8358,-1.8365,-1.8366,-1.8366,-1.8292,-1.8289,-1.8287,-1.8284,-1.8293,-1.8296,-1.8298,0,0,0,0,0,0,0,0,0,0,0,0,0,-1.8302,-1.8281,-1.8357,-1.8322,-1.8319,-1.8365,-1.8366,-1.8366,-1.8292,-1.8289,-1.8286,-1.8283,-1.8292,-1.8295,-1.8298,-1.838,0,0,-1.8308,-1.831,0,0,0,0,0,0,0,0,-1.8301,-1.8305,-1.8327,-1.8324,-1.8321,-1.8324,-1.8341,-1.837,-1.8293,-1.8302,-1.8285,-1.8282,-1.8306,-1.8308,-1.8316,-1.838,-1.8381,-1.8309,-1.831,-1.8312,-1.8313,0,0,0,0,0,0,0,-1.8299,-1.8304,-1.8361,-1.8327,-1.8324,-1.8305,-1.8305,-1.8346,-1.8322,-1.8301,-1.8296,-1.8298,-1.8304,-1.8314,-1.8316,-1.8381,-1.8308,-1.8311,-1.8313,-1.8315,-1.8512,-1.8515,0,0,0,0,0,0,-1.8302,-1.8303,-1.836,-1.8361,-1.8303,-1.8309,-1.8309,-1.8326,-1.8321,-1.8317,-1.83,-1.8294,-1.831,-1.8312,-1.8316,-1.8412,-1.8312,-1.8315,-1.8317,-1.8509,-1.8513,-1.8516,0,0,0,0,0,0,-1.8301,-1.8308,-1.836,-1.8331,-1.8336,-1.8314,-1.8334,-1.8328,-1.8337,-1.832,-1.8316,-1.8315,-1.8307,-1.8312,-1.8365,-1.8411,-1.8316,-1.8319,-1.8505,-1.851,-1.8515,-1.8603,0,0,0,0,0,0,-1.8299,-1.8308,-1.8339,-1.8332,-1.8338,-1.8409,-1.8336,-1.833,-1.8343,-1.8335,-1.8332,-1.8329,-1.8305,-1.836,-1.8368,-1.8414,-1.8322,-1.8501,-1.8507,-1.8513,-1.8596,-1.8611,-1.8623,0,0,0,0,0,-1.8296,-1.8363,-1.8341,-1.8348,-1.8376,-1.8412,-1.8415,-1.8386,-1.8347,-1.8378,-1.8367,-1.8329,-1.8404,-1.8366,-1.8374,-1.8422,-1.8498,-1.8505,-1.8513,-1.859,-1.8608,-1.8623,0,0,0,0,0,0,-1.8376,-1.8362,-1.8337,-1.8403,-1.8409,-1.8399,-1.8437,-1.8406,-1.8423,-1.8415,-1.8378,-1.8378,-1.8438,-1.8435,-1.8393,-1.85,-1.8444,-1.8454,-1.85,-1.8517,-1.853,-1.853,-1.8324,0,0,0,0,0,-1.8402,-1.8432,-1.8418,-1.8478,-1.8482,-1.8459,-1.8474,-1.8451,-1.8456,-1.8458,-1.8451,-1.8457,-1.8482,-1.8499,-1.8521,-1.8595,-1.8593,-1.8631,-1.8645,-1.8656,-1.8665,-1.8704,-1.8721,-1.8541,-1.8541,-1.8541,0,0,-1.8455,-1.845,-1.8472,-1.8494,-1.8496,-1.8528,-1.8462,-1.8499,-1.8522,-1.8463,-1.8513,-1.8508,-1.8513,-1.8577,-1.8604,-1.8576,-1.8714,-1.8665,-1.8674,-1.8677,-1.8714,-1.8731,-1.8746,-1.8546,-1.8545,-1.8544,0,0,-1.8567,-1.8567,-1.8618,-1.8621,-1.8625,-1.8609,-1.8621,-1.8616,-1.861,-1.8659,-1.8616,-1.8643,-1.8687,-1.8692,-1.87,-1.8815,-1.8781,-1.8823,-1.8894,-1.8933,-1.8947,-1.896,-1.9001,-1.9016,-1.8832,-1.8832,-1.8832,0,-1.8633,-1.868,-1.8647,-1.8687,-1.8699,-1.8647,-1.8698,-1.8702,-1.8713,-1.8722,-1.869,-1.8744,-1.8743,-1.8808,-1.8836,-1.8844,-1.8857,-1.8824,-1.8948,-1.896,-1.8971,-1.901,-1.9026,-1.8837,-1.8837,-1.8836,-1.8836,0,-1.876,-1.8793,-1.8833,-1.8845,-1.8861,-1.8906,-1.8881,-1.8901,-1.8877,-1.8865,-1.8916,-1.8913,-1.8933,-1.8947,-1.8924,-1.9009,-1.8991,-1.8954,-1.8897,-1.8994,-1.903,-1.9045,-1.8845,-1.8843,-1.8841,-1.884,0,0,-1.8924,-1.8917,-1.8933,-1.8938,-1.8938,-1.8963,-1.9006,-1.9026,-1.9044,-1.9053,-1.9089,-1.9127,-1.9093,-1.9102,-1.9079,-1.9113,-1.9205,-1.9072,-1.9071,-1.9097,-1.9299,-1.9328,-1.9345,-1.9182,-1.9185,-1.9187,-1.9299,0,-1.9034,-1.9107,-1.908,-1.9155,-1.9186,-1.9137,-1.9174,-1.9179,-1.9168,-1.9193,-1.9181,-1.9209,-1.9161,-1.9167,-1.9198,-1.9187,-1.9245,-1.9179,-1.9215,-1.9217,-1.9217,-1.9364,-1.9394,-1.95,-1.9313,-1.9315,-1.9317,0,-1.9173,-1.9188,-1.9267,-1.9262,-1.9274,-1.9308,-1.9325,-1.9348,-1.9352,-1.9342,-1.9353,-1.9323,-1.9365,-1.9307,-1.9365,-1.932,-1.9333,-1.933,-1.9334,-1.9337,-1.9273,-1.9372,-1.9533,-1.9549,-1.9339,-1.9337,-1.9335,0,-1.9286,-1.9325,-1.9378,-1.9383,-1.9379,-1.9404,-1.9404,-1.9405,-1.9419,-1.9433,-1.9442,-1.9461,-1.9472,-1.9487,-1.9463,-1.9423,-1.9524,-1.9464,-1.9517,-1.9518,-1.9541,-1.954,-1.9708,-1.9549,-1.9549,-1.9548,-1.9548,0,-1.9412,-1.9462,-1.9428,-1.9461,-1.9515,-1.9483,-1.9538,-1.9532,-1.9533,-1.9563,-1.9522,-1.9551,-1.9517,-1.9543,-1.9524,-1.9575,-1.958,-1.9573,-1.9568,-1.9577,-1.9578,-1.9586,-1.9578,-1.9552,-1.9552,-1.9551,-1.955,0,-1.9547,-1.9526,-1.958,-1.9572,-1.9571,-1.9612,-1.9605,-1.9634,-1.9621,-1.966,-1.9667,-1.9646,-1.9675,-1.9652,-1.968,-1.9667,-1.9734,-1.9718,-1.9733,-1.9729,-1.9783,-1.9779,-1.9962,-1.9985,-1.9811,-1.9813,-1.9814,0,-1.963,-1.9667,-1.9663,-1.9681,-1.9683,-1.9711,-1.9725,-1.9695,-1.9711,-1.9719,-1.9748,-1.9773,-1.9791,-1.9839,-1.9827,-1.9848,-1.9832,-1.9895,-1.9835,-1.9844,-1.9834,-1.9832,-1.9836,-1.9907,-1.9909,-1.9911,-1.9912,0,-1.9779,-1.9767,-1.9789,-1.9808,-1.9826,-1.984,-1.985,-1.9866,-1.9835,-1.9856,-1.9885,-1.9899,-1.9928,-1.9953,-1.997,-1.9969,-1.9936,-1.9931,-1.9945,-1.9955,-1.9963,-1.996,-1.9767,-1.9927,-1.9926,-1.9925,-1.9924,-1.9923,-1.989,-1.9922,-1.9924,-1.995,-1.9955,-1.9965,-1.9993,-1.9983,-2.0006,-2.0027,-2.0008,-2.0043,-2.0046,-2.0065,-2.0068,-2.0095,-2.0069,-2.0089,-2.0094,-2.0099,-2.0107,-1.9958,-2.0098,-2.0098,-2.0097,-2.0097,-2.0097,0,-2.0038,-2.0037,-2.0061,-2.0077,-2.0098,-2.0065,-2.0074,-2.0094,-2.0125,-2.0131,-2.015,-2.0183,-2.0208,-2.0197,-2.0219,-2.0243,-2.0228,-2.0249,-2.0248,-2.0248,-2.0129,-2.0116,-2.0261,-2.0261,-2.0261,-2.0261,-2.0261,-2.0261,-2.0117,-2.0168,-2.0157,-2.021,-2.0208,-2.0242,-2.0251,-2.026,-2.0265,-2.0304,-2.0324,-2.0317,-2.0317,-2.0338,-2.0359,-2.0355,-2.0365,-2.0393,-2.0384,-2.0273,-2.0256,-2.0241,-2.0228,-2.0395,-2.0395,-2.0501,-2.0502,-2.0502]},{"header":{"parameterUnit":"m.s-1","parameterCategory":1,"la1":30.2991,"la2":30.254,"lo1":-89.0895,"lo2":-89.0444,"dy":0.0017,"dx":0.0017,"nx":28,"ny":28,"refTime":"2023-08-29T09:00:00:Z","depth":0,"parameterNumber":3,"parameterNumberName":"V-component_of_WINDS"},"data":[0,0,0,0,0,0,0,0,0,0,0,0,0,0,0,0,0,0,0,0,0,0,0,0,0,0,0,0,0,0,0,0,0,0,0,0,0,0,0,0,0,0,0,0,0,0,0,0,0,0,0,0,0,0,0,0,0,0,-2.805,-2.8051,0,-2.8127,-2.8128,-2.8128,-2.812,-2.8118,-2.8117,-2.8116,-2.8191,-2.8194,-2.8197,0,0,0,0,0,0,0,0,0,0,0,0,0,-2.7893,-2.7896,-2.805,-2.8051,-2.8052,-2.8127,-2.8128,-2.8129,-2.812,-2.8118,-2.8117,-2.8116,-2.819,-2.8194,-2.8198,0,0,0,0,0,0,0,0,0,0,0,0,0,-2.7964,-2.7897,-2.805,-2.8057,-2.8058,-2.8126,-2.8128,-2.8129,-2.812,-2.8118,-2.8117,-2.8115,-2.8189,-2.8194,-2.8198,-2.8264,0,0,-2.8213,-2.8215,0,0,0,0,0,0,0,0,-2.796,-2.797,-2.8055,-2.8056,-2.8058,-2.8112,-2.81,-2.8174,-2.8121,-2.8096,-2.8116,-2.8114,-2.8166,-2.8172,-2.8191,-2.8267,-2.827,-2.8213,-2.8216,-2.8218,-2.8219,0,0,0,0,0,0,0,-2.7955,-2.7967,-2.808,-2.8056,-2.8058,-2.8055,-2.8063,-2.8114,-2.814,-2.8098,-2.8098,-2.8107,-2.8167,-2.8186,-2.8192,-2.8272,-2.8213,-2.8217,-2.822,-2.8222,-2.8406,-2.8408,0,0,0,0,0,0,-2.7949,-2.7963,-2.8078,-2.8082,-2.8004,-2.8059,-2.8068,-2.8096,-2.814,-2.8145,-2.8109,-2.8107,-2.8179,-2.8187,-2.8195,-2.8275,-2.8218,-2.8222,-2.8225,-2.8404,-2.8406,-2.8408,0,0,0,0,0,0,-2.7946,-2.796,-2.8075,-2.8023,-2.8037,-2.8064,-2.8095,-2.8099,-2.8119,-2.8148,-2.8152,-2.8124,-2.8178,-2.8188,-2.8247,-2.8277,-2.8224,-2.8229,-2.8401,-2.8404,-2.8407,-2.8434,0,0,0,0,0,0,-2.7941,-2.7958,-2.7984,-2.8023,-2.804,-2.8126,-2.8097,-2.8102,-2.8127,-2.8125,-2.8163,-2.8168,-2.8177,-2.824,-2.8252,-2.8283,-2.8232,-2.8399,-2.8403,-2.8406,-2.8431,-2.8438,-2.8444,0,0,0,0,0,-2.7936,-2.7988,-2.7986,-2.7999,-2.8073,-2.8128,-2.8137,-2.8148,-2.813,-2.8155,-2.8174,-2.8167,-2.8272,-2.8246,-2.8259,-2.8292,-2.8397,-2.8401,-2.8406,-2.8428,-2.8437,-2.8444,0,0,0,0,0,0,-2.795,-2.7993,-2.7991,-2.8057,-2.8089,-2.8126,-2.8159,-2.8157,-2.8194,-2.819,-2.8201,-2.8209,-2.8268,-2.8286,-2.8256,-2.8358,-2.8332,-2.8339,-2.8344,-2.8353,-2.8359,-2.8353,-2.8236,0,0,0,0,0,-2.7962,-2.8004,-2.8038,-2.8094,-2.811,-2.8132,-2.8156,-2.8162,-2.8195,-2.8208,-2.8231,-2.8262,-2.8302,-2.8329,-2.8367,-2.8434,-2.8442,-2.8463,-2.8469,-2.8475,-2.8481,-2.8517,-2.8527,-2.8424,-2.8424,-2.8424,0,0,-2.7984,-2.8013,-2.8039,-2.8097,-2.8123,-2.8165,-2.8143,-2.8189,-2.8221,-2.8214,-2.8271,-2.829,-2.8325,-2.8388,-2.8417,-2.8405,-2.8511,-2.8481,-2.8485,-2.8488,-2.8523,-2.8533,-2.8542,-2.8427,-2.8426,-2.8426,0,0,-2.8048,-2.8074,-2.8124,-2.815,-2.8189,-2.8203,-2.8215,-2.8253,-2.8265,-2.8323,-2.8319,-2.8356,-2.8425,-2.8451,-2.8473,-2.8548,-2.8542,-2.856,-2.8594,-2.863,-2.8638,-2.8645,-2.8671,-2.8681,-2.8566,-2.8566,-2.8566,0,-2.8071,-2.8137,-2.8149,-2.8196,-2.8221,-2.8219,-2.8269,-2.8293,-2.8342,-2.836,-2.8346,-2.8433,-2.8456,-2.8525,-2.8544,-2.8562,-2.8575,-2.8555,-2.8636,-2.8643,-2.865,-2.8675,-2.8685,-2.8568,-2.8568,-2.8568,-2.8567,0,-2.8163,-2.8208,-2.8243,-2.8292,-2.8322,-2.837,-2.8388,-2.8417,-2.842,-2.8436,-2.8494,-2.8523,-2.8568,-2.8585,-2.8588,-2.8654,-2.8645,-2.8634,-2.8608,-2.8662,-2.8686,-2.8695,-2.8571,-2.857,-2.8569,-2.8569,0,0,-2.8237,-2.8293,-2.8306,-2.8328,-2.8372,-2.8406,-2.8454,-2.8499,-2.8523,-2.8557,-2.8597,-2.8656,-2.8646,-2.8671,-2.8677,-2.8708,-2.8765,-2.8693,-2.8693,-2.8705,-2.884,-2.8848,-2.8859,-2.8762,-2.8764,-2.8766,-2.8837,0,-2.8305,-2.839,-2.8403,-2.8478,-2.852,-2.8519,-2.856,-2.8591,-2.8607,-2.8644,-2.8661,-2.8703,-2.8686,-2.8702,-2.8733,-2.8752,-2.8792,-2.8747,-2.8798,-2.88,-2.8789,-2.8872,-2.8881,-2.8946,-2.8846,-2.8848,-2.8849,0,-2.8395,-2.8433,-2.8513,-2.8551,-2.8569,-2.8606,-2.8648,-2.8684,-2.8719,-2.8728,-2.8757,-2.876,-2.8808,-2.8781,-2.8848,-2.8817,-2.8839,-2.8851,-2.8854,-2.8859,-2.8827,-2.8878,-2.8968,-2.8977,-2.8864,-2.8863,-2.8862,0,-2.844,-2.8512,-2.8569,-2.8588,-2.8634,-2.866,-2.868,-2.8714,-2.874,-2.8777,-2.8794,-2.8835,-2.8858,-2.889,-2.8903,-2.8882,-2.8969,-2.8943,-2.8978,-2.8977,-2.8995,-2.8994,-2.9089,-2.9011,-2.901,-2.901,-2.901,0,-2.8514,-2.8563,-2.859,-2.8625,-2.8679,-2.8693,-2.8746,-2.8765,-2.8795,-2.8833,-2.8835,-2.887,-2.8886,-2.8924,-2.8935,-2.8988,-2.8998,-2.9007,-2.9009,-2.9007,-2.9005,-2.902,-2.9016,-2.9013,-2.9012,-2.9012,-2.9011,0,-2.8574,-2.8594,-2.8656,-2.8695,-2.8706,-2.8745,-2.8778,-2.8811,-2.8828,-2.8876,-2.8888,-2.8913,-2.8958,-2.8975,-2.9029,-2.9036,-2.9098,-2.9097,-2.9087,-2.9087,-2.9121,-2.9117,-2.9228,-2.9244,-2.9155,-2.9156,-2.9157,0,-2.8619,-2.8657,-2.8701,-2.8727,-2.8749,-2.8791,-2.8818,-2.8833,-2.8862,-2.8905,-2.8933,-2.8978,-2.9014,-2.9086,-2.9108,-2.915,-2.9149,-2.9185,-2.9155,-2.9152,-2.9149,-2.9147,-2.915,-2.919,-2.9191,-2.9192,-2.9193,0,-2.8698,-2.8706,-2.8746,-2.879,-2.8823,-2.8858,-2.8892,-2.8913,-2.8933,-2.8965,-2.9011,-2.904,-2.9096,-2.914,-2.9183,-2.9203,-2.9201,-2.9202,-2.9212,-2.921,-2.9202,-2.9207,-2.9101,-2.9199,-2.9199,-2.9198,-2.9198,-2.9198,-2.8752,-2.8785,-2.8822,-2.8866,-2.8894,-2.8925,-2.8959,-2.898,-2.902,-2.9067,-2.9074,-2.9123,-2.9157,-2.9215,-2.9237,-2.9276,-2.9266,-2.9281,-2.9284,-2.9288,-2.929,-2.9197,-2.9283,-2.9283,-2.9283,-2.9283,-2.9283,0,-2.883,-2.8854,-2.8895,-2.8943,-2.8978,-2.8975,-2.9012,-2.9041,-2.9086,-2.9118,-2.9155,-2.9208,-2.9251,-2.9278,-2.9321,-2.9347,-2.9347,-2.9358,-2.9356,-2.936,-2.9296,-2.9283,-2.9357,-2.9357,-2.9357,-2.9357,-2.9357,-2.9357,-2.8875,-2.8932,-2.8944,-2.9015,-2.9038,-2.9087,-2.9109,-2.9138,-2.9164,-2.9224,-2.9261,-2.9278,-2.9309,-2.9354,-2.9394,-2.94,-2.9416,-2.9427,-2.9433,-2.9373,-2.9365,-2.9357,-2.9345,-2.9431,-2.9431,-2.9494,-2.9495,-2.9495]}]]